FW6956 Weather Reports


time (UTC)temp
C
wind
direction
speed
KPH
gust
KPH
rain 1hr
cm
rain 24hr
cm
rain mn
cm
humidity
%
barometer
mb
20260508194556 22 226 0.0 12.9 0.00 0.00 0.00 43 1015.0
20260508193102 22 118 3.2 8.0 0.00 0.00 0.00 43 1015.0
20260508191557 22 95 3.2 9.7 0.00 0.00 0.00 42 1015.3
20260508184625 20 224 1.6 8.0 0.00 0.00 0.00 44 1015.5
20260508183057 21 71 1.6 17.7 0.00 0.00 0.00 44 1015.6
20260508181605 21 284 1.6 6.4 0.00 0.00 0.00 43 1016.0
20260508180056 20 211 1.6 9.7 0.00 0.00 0.00 42 1016.2
20260508174555 21 144 3.2 9.7 0.00 0.00 0.00 39 1016.2
20260508173056 21 286 1.6 9.7 0.00 0.00 0.00 35 1016.7
20260508171558 20 274 3.2 17.7 0.00 0.00 0.00 35 1016.9
20260508170058 20 327 1.6 8.0 0.00 0.00 0.00 36 1017.1
20260508164604 20 229 1.6 14.5 0.00 0.00 0.00 39 1017.3
20260508163100 19 329 4.8 12.9 0.00 0.00 0.00 40 1017.5
20260508161556 19 203 1.6 11.3 0.00 0.00 0.00 38 1017.6
20260508160056 18 0 1.6 11.3 0.00 0.00 0.00 38 1017.9
20260508154557 18 252 0.0 8.0 0.00 0.00 0.00 43 1018.2
20260508153055 18 5 3.2 12.9 0.00 0.00 0.00 48 1018.2
20260508151603 17 332 4.8 9.7 0.00 0.00 0.00 49 1018.2
20260508144622 17 355 1.6 11.3 0.00 0.00 0.00 53 1018.5
20260508143111 16 284 0.0 8.0 0.00 0.00 0.00 56 1018.6
20260508141607 16 259 1.6 9.7 0.00 0.00 0.00 58 1018.5
20260508140058 15 113 3.2 6.4 0.00 0.00 0.00 59 1018.7
20260508134600 14 0 0.0 4.8 0.00 0.00 0.00 64 1018.5
20260508133122 13 333 0.0 4.8 0.00 0.00 0.00 73 1018.6
20260508131558 13 0 0.0 0.0 0.00 0.00 0.00 78 1018.6
20260508130106 12 0 0.0 0.0 0.00 0.00 0.00 82 1018.4
20260508124559 11 0 0.0 0.0 0.00 0.05 0.00 86 1018.5
20260508123110 10 0 0.0 0.0 0.00 0.05 0.00 90 1018.4
20260508121602 8 0 0.0 0.0 0.00 0.05 0.00 94 1018.3
20260508120056 7 0 0.0 0.0 0.00 0.05 0.00 97 1018.1
20260508114554 6 0 0.0 0.0 0.00 0.41 0.00 97 1018.1
20260508113108 5 0 0.0 0.0 0.00 0.41 0.00 96 1017.7
20260508111606 5 0 0.0 0.0 0.00 0.41 0.00 96 1017.5
20260508110059 4 0 0.0 0.0 0.00 0.41 0.00 96 1017.3
20260508104608 3 0 0.0 0.0 0.00 0.46 0.00 95 1017.3
20260508103102 4 0 0.0 0.0 0.00 0.46 0.00 95 1016.8
20260508101615 4 0 0.0 0.0 0.00 0.46 0.00 95 1016.5
20260508100100 5 0 0.0 0.0 0.00 0.46 0.00 95 1016.4
20260508094557 5 0 0.0 0.0 0.00 0.46 0.00 95 1016.2
20260508093057 5 0 0.0 0.0 0.00 0.46 0.00 95 1016.2
20260508091610 5 0 0.0 0.0 0.00 0.46 0.00 95 1016.1
20260508090113 5 0 0.0 0.0 0.00 0.46 0.00 95 1016.1
20260508084558 5 0 0.0 0.0 0.00 0.46 0.00 95 1015.8
20260508083058 6 0 0.0 0.0 0.00 0.46 0.00 95 1015.8
20260508081604 6 0 0.0 4.8 0.00 0.46 0.00 95 1015.7
20260508080057 6 0 0.0 0.0 0.00 0.46 0.00 95 1015.7
20260508074558 6 0 0.0 3.2 0.00 0.46 0.00 95 1015.5
20260508073105 6 0 0.0 8.0 0.00 0.46 0.00 95 1015.3
20260508071604 6 0 0.0 0.0 0.00 0.46 0.00 94 1015.4
20260508070104 6 0 0.0 0.0 0.00 0.46 0.00 95 1015.2
20260508064556 6 0 0.0 1.6 0.00 0.46 0.00 94 1015.4
20260508063059 7 0 0.0 4.8 0.00 0.46 0.00 94 1015.0
20260508061557 7 0 0.0 0.0 0.00 0.46 0.00 94 1015.0
20260508060100 7 0 0.0 0.0 0.00 0.46 0.00 93 1014.9
20260508054558 7 0 0.0 0.0 0.00 0.56 0.00 93 1014.9
20260508053119 7 0 0.0 0.0 0.00 0.56 0.00 92 1014.9
20260508051559 7 0 0.0 0.0 0.00 0.56 0.00 93 1014.9
20260508050100 8 0 0.0 4.8 0.00 0.56 0.00 92 1014.6
20260508044559 8 0 0.0 0.0 0.00 0.69 0.00 92 1014.5
20260508043104 8 0 0.0 1.6 0.00 0.69 0.00 91 1014.6
20260508041617 8 0 0.0 0.0 0.00 0.69 0.00 90 1014.6
20260508040110 8 0 0.0 1.6 0.00 0.69 0.00 90 1014.5
20260508034603 9 0 0.0 1.6 0.00 0.69 0.69 88 1014.5
20260508033056 10 0 0.0 0.0 0.00 0.69 0.69 87 1014.6
20260508031601 10 0 0.0 1.6 0.00 0.69 0.69 86 1014.5
20260508030058 10 0 0.0 1.6 0.00 0.69 0.69 86 1014.3
20260508024606 10 0 0.0 1.6 0.00 0.79 0.69 85 1014.1
20260508023057 10 0 0.0 1.6 0.00 0.79 0.69 84 1013.8
20260508021558 11 0 0.0 1.6 0.00 0.79 0.69 83 1013.8
20260508020056 12 0 0.0 1.6 0.00 0.79 0.69 77 1013.7
20260508014602 12 103 0.0 3.2 0.00 0.86 0.69 76 1013.2
20260508013059 12 0 0.0 1.6 0.00 0.86 0.69 75 1013.1
20260508011603 13 0 0.0 3.2 0.00 0.86 0.69 72 1013.1
20260508010100 14 103 0.0 3.2 0.00 0.86 0.69 65 1012.7
20260508004604 15 0 0.0 6.4 0.00 1.14 0.69 64 1012.6
20260508003106 15 0 0.0 4.8 0.00 1.14 0.69 62 1012.3
20260508001601 16 348 4.8 17.7 0.00 1.14 0.69 59 1012.5
20260508000059 16 53 4.8 12.9 0.00 1.14 0.69 60 1012.1
20260507234558 16 9 1.6 9.7 0.00 1.30 0.69 61 1012.0
20260507233103 17 344 4.8 16.1 0.00 1.30 0.69 61 1011.7
20260507231559 17 40 4.8 22.5 0.00 1.30 0.69 60 1011.6
20260507224600 19 96 8.0 22.5 0.00 1.30 0.69 58 1011.0
20260507223101 20 10 4.8 27.4 0.00 1.30 0.69 58 1010.6
20260507221558 21 329 4.8 14.5 0.00 1.30 0.69 57 1010.2
20260507220056 21 346 4.8 17.7 0.00 1.30 0.69 56 1009.6
20260507214608 22 296 4.8 20.9 0.00 1.30 0.69 52 1009.4
20260507213105 22 20 4.8 16.1 0.00 1.30 0.69 53 1009.4
20260507211555 23 355 4.8 16.1 0.00 1.30 0.69 52 1008.9
20260507204558 25 228 3.2 14.5 0.00 1.30 0.69 51 1008.6
20260507203058 23 340 4.8 20.9 0.00 1.30 0.69 54 1008.4
20260507201558 25 325 4.8 17.7 0.00 1.30 0.69 52 1008.1
20260507200057 25 303 8.0 19.3 0.00 1.30 0.69 53 1008.1